Weather History for Lordsburg, NM

Change the Weather History Date:

Wednesday, October 3, 2012

  Actual Average Record
Temperature  
Mean Temperature 73 °F -  
Max Temperature 91 °F 84 °F 84 °F (2013)
Min Temperature 55 °F 48 °F 50 °F (2013)
Cooling Degree Days 8    
Growing Degree Days 23 (Base 50)    
Moisture  
Dew Point 31 °F    
Average Humidity 23    
Maximum Humidity 41    
Minimum Humidity 11    
Precipitation  
Precipitation 0.00 in - - ()
Sea Level Pressure  
Sea Level Pressure 30.09 in    
Wind  
Wind Speed 6 mph ()    
Max Wind Speed 20 mph    
Max Gust Speed 26 mph    
Visibility 10.0 miles    
Events      
Averages and records for this station are not official NWS values.
T = Trace of Precipitation, MM = Missing Value Source: Averaged Metar Reports

Daily Weather History Graph

Daily Weather History Graph

Search for Another Location

Airport:

Trip Planner

Search our weather history database for the weather conditions in past years. The results will help you decide how hot, cold, wet, or windy it might be!

Date:

Astronomy

Oct. 03, 2012 Rise Set
Actual Time 7:10 AM MDT 6:56 PM MDT
Civil Twilight 6:45 AM MDT 7:20 PM MDT
Nautical Twilight 6:17 AM MDT 7:49 PM MDT
Astronomical Twilight 5:49 AM MDT 8:17 PM MDT
Moon 9:04 PM MDT (10/3) 10:22 AM MDT (10/3)
Length of Visible Light 12h 34m
Length of Day
11h 45m
Waning Gibbous, 88% of the Moon is Illuminated
Oct 3
Waning Gibbous
Oct 8
Last Quarter
Oct 15
New
Oct 21
First Quarter
Oct 29
Full

Hourly Weather History & Observations

Time (MDT) Temp. Dew Point Humidity Pressure Visibility Wind Dir Wind Speed Gust Speed Precip Events Conditions
12:15 AM 64.4 °F 32.0 °F 30% 30.04 in 10.0 mi NNW 4.6 mph - N/A   Clear
12:35 AM 64.4 °F 32.0 °F 30% 30.04 in 10.0 mi NW 4.6 mph - N/A   Clear
12:55 AM 64.4 °F 32.0 °F 30% 30.04 in 10.0 mi NNW 4.6 mph - N/A   Clear
1:15 AM 62.6 °F 32.0 °F 32% 30.04 in 10.0 mi NNW 4.6 mph - N/A   Clear
1:35 AM 62.6 °F 32.0 °F 32% 30.04 in 10.0 mi NW 4.6 mph - N/A   Clear
1:55 AM 62.6 °F 32.0 °F 32% 30.05 in 10.0 mi WNW 4.6 mph - N/A   Clear
2:15 AM 60.8 °F 32.0 °F 34% 30.05 in 10.0 mi WNW 5.8 mph - N/A   Clear
2:35 AM 60.8 °F 32.0 °F 34% 30.06 in 10.0 mi WNW 6.9 mph - N/A   Clear
2:55 AM 60.8 °F 32.0 °F 34% 30.05 in 10.0 mi WNW 6.9 mph - N/A   Clear
3:15 AM 60.8 °F 32.0 °F 34% 30.05 in 10.0 mi NNW 3.5 mph - N/A   Clear
3:35 AM 60.8 °F 30.2 °F 31% 30.05 in 10.0 mi NW 3.5 mph - N/A   Clear
3:55 AM 60.8 °F 30.2 °F 31% 30.06 in 10.0 mi West 3.5 mph - N/A   Clear
4:15 AM 59.0 °F 30.2 °F 34% 30.06 in 10.0 mi Calm Calm - N/A   Clear
4:55 AM 60.8 °F 30.2 °F 31% 30.07 in 10.0 mi Calm Calm - N/A   Clear
5:15 AM 59.0 °F 32.0 °F 36% 30.07 in 10.0 mi Calm Calm - N/A   Clear
5:35 AM 59.0 °F 32.0 °F 36% 30.07 in 10.0 mi Calm Calm - N/A   Clear
5:55 AM 59.0 °F 32.0 °F 36% 30.08 in 10.0 mi Calm Calm - N/A   Clear
6:15 AM 59.0 °F 32.0 °F 36% 30.08 in 10.0 mi Calm Calm - N/A   Clear
6:35 AM 57.2 °F 32.0 °F 38% 30.08 in 10.0 mi NW 3.5 mph - N/A   Clear
6:55 AM 55.4 °F 32.0 °F 41% 30.08 in 10.0 mi Calm Calm - N/A   Clear
7:15 AM 59.0 °F 32.0 °F 36% 30.10 in 10.0 mi Calm Calm - N/A   Clear
7:35 AM 55.4 °F 32.0 °F 41% 30.10 in 10.0 mi NW 3.5 mph - N/A   Clear
7:55 AM 59.0 °F 32.0 °F 36% 30.10 in 10.0 mi NNW 4.6 mph - N/A   Clear
8:15 AM 62.6 °F 33.8 °F 34% 30.11 in 10.0 mi Calm Calm - N/A   Clear
8:35 AM 68.0 °F 32.0 °F 26% 30.11 in 10.0 mi Calm Calm - N/A   Clear
8:55 AM 69.8 °F 32.0 °F 25% 30.12 in 10.0 mi Calm Calm - N/A   Clear
9:15 AM 73.4 °F 32.0 °F 22% 30.12 in 7.0 mi Calm Calm - N/A   Clear
9:35 AM 75.2 °F 32.0 °F 21% 30.13 in 10.0 mi NW 3.5 mph - N/A   Clear
9:55 AM 78.8 °F 32.0 °F 18% 30.14 in 10.0 mi West 3.5 mph - N/A   Clear
10:15 AM 80.6 °F 32.0 °F 17% 30.14 in 10.0 mi WNW 5.8 mph - N/A   Clear
10:35 AM 80.6 °F 32.0 °F 17% 30.14 in 10.0 mi WNW 5.8 mph - N/A   Clear
10:55 AM 82.4 °F 32.0 °F 16% 30.14 in 10.0 mi NW 6.9 mph - N/A   Clear
11:15 AM 82.4 °F 32.0 °F 16% 30.14 in 10.0 mi NNW 6.9 mph - N/A   Clear
11:35 AM 86.0 °F 32.0 °F 14% 30.14 in 10.0 mi West 8.1 mph - N/A   Clear
11:55 AM 86.0 °F 32.0 °F 14% 30.13 in 10.0 mi NW 9.2 mph 16.1 mph N/A   Clear
12:15 PM 87.8 °F 32.0 °F 14% 30.13 in 10.0 mi WNW 12.7 mph 18.4 mph N/A   Clear
12:35 PM 87.8 °F 32.0 °F 14% 30.12 in 10.0 mi WNW 10.4 mph 16.1 mph N/A   Clear
12:55 PM 89.6 °F 30.2 °F 12% 30.11 in 10.0 mi NW 17.3 mph 26.5 mph N/A   Clear
1:15 PM 89.6 °F 30.2 °F 12% 30.10 in 10.0 mi WNW 18.4 mph 24.2 mph N/A   Clear
1:35 PM 89.6 °F 30.2 °F 12% 30.10 in 10.0 mi WNW 16.1 mph 25.3 mph N/A   Clear
1:55 PM 89.6 °F 32.0 °F 13% 30.09 in 10.0 mi NW 17.3 mph 25.3 mph N/A   Clear
2:15 PM 89.6 °F 30.2 °F 12% 30.08 in 10.0 mi WNW 16.1 mph 24.2 mph N/A   Clear
2:35 PM 89.6 °F 30.2 °F 12% 30.08 in 10.0 mi West 13.8 mph 23.0 mph N/A   Clear
2:55 PM 89.6 °F 30.2 °F 12% 30.07 in 10.0 mi West 13.8 mph 18.4 mph N/A   Clear
3:15 PM 89.6 °F 30.2 °F 12% 30.06 in 10.0 mi WNW 17.3 mph 24.2 mph N/A   Clear
3:35 PM 91.4 °F 30.2 °F 11% 30.06 in 10.0 mi WNW 11.5 mph 23.0 mph N/A   Clear
3:55 PM 89.6 °F 30.2 °F 12% 30.06 in 10.0 mi WNW 19.6 mph 26.5 mph N/A   Clear
4:15 PM 91.4 °F 30.2 °F 11% 30.06 in 10.0 mi NW 12.7 mph - N/A   Clear
4:55 PM 89.6 °F 30.2 °F 12% 30.06 in 10.0 mi West 17.3 mph 26.5 mph N/A   Clear
5:15 PM 89.6 °F 30.2 °F 12% 30.06 in 10.0 mi WNW 13.8 mph 20.7 mph N/A   Clear
5:35 PM 89.6 °F 32.0 °F 13% 30.06 in 10.0 mi WNW 13.8 mph 24.2 mph N/A   Clear
5:55 PM 89.6 °F 30.2 °F 12% 30.07 in 10.0 mi WNW 18.4 mph 23.0 mph N/A   Clear
6:15 PM 87.8 °F 30.2 °F 13% 30.07 in 10.0 mi NW 15.0 mph 23.0 mph N/A   Clear
6:35 PM 86.0 °F 28.4 °F 12% 30.08 in 10.0 mi NW 12.7 mph 20.7 mph N/A   Clear
6:55 PM 84.2 °F 28.4 °F 13% 30.08 in 10.0 mi NW 9.2 mph - N/A   Clear
7:15 PM 82.4 °F 28.4 °F 14% 30.08 in 10.0 mi WNW 8.1 mph - N/A   Clear
7:35 PM 80.6 °F 28.4 °F 15% 30.09 in 10.0 mi WNW 9.2 mph - N/A   Clear
7:55 PM 78.8 °F 28.4 °F 16% 30.10 in 10.0 mi WNW 8.1 mph - N/A   Clear
8:15 PM 77.0 °F 28.4 °F 17% 30.10 in 10.0 mi WNW 9.2 mph - N/A   Clear
8:35 PM 77.0 °F 28.4 °F 17% 30.11 in 10.0 mi WNW 9.2 mph - N/A   Clear
8:55 PM 77.0 °F 28.4 °F 17% 30.12 in 10.0 mi West 6.9 mph - N/A   Clear
9:15 PM 73.4 °F 30.2 °F 20% 30.12 in 10.0 mi West 8.1 mph - N/A   Clear
9:35 PM 73.4 °F 30.2 °F 20% 30.13 in 10.0 mi West 6.9 mph - N/A   Clear
9:55 PM 66.2 °F 28.4 °F 24% 30.14 in 10.0 mi Calm Calm - N/A   Clear
10:15 PM 68.0 °F 28.4 °F 23% 30.14 in 10.0 mi Calm Calm - N/A   Clear
10:35 PM 68.0 °F 28.4 °F 23% 30.14 in 10.0 mi North 3.5 mph - N/A   Clear
10:55 PM 66.2 °F 28.4 °F 24% 30.15 in 10.0 mi North 3.5 mph - N/A   Clear
11:15 PM 64.4 °F 30.2 °F 28% 30.16 in 10.0 mi Calm Calm - N/A   Clear
11:35 PM 64.4 °F 30.2 °F 28% 30.16 in 10.0 mi Calm Calm - N/A   Clear
11:55 PM 62.6 °F 30.2 °F 30% 30.16 in 10.0 mi West 3.5 mph - N/A   Clear